This is the latest recevied weather packets stored in our database for station/object N9BLE. If no packets are shown the sender has not sent any weather packets the latest 1 day(s).
| Time | Temp. | Humidity | Pressure | Rain* | Wind** | Luminosity | Snow |
|---|---|---|---|---|---|---|---|
| 1778003603 | 12.78° C | 35% | 1013.3 hPa | 0 mm | 0.89 m/s, 262° | 334 W/m² | - |
| 1778003299 | 13.33° C | 34% | 1013.3 hPa | 0 mm | 0.89 m/s, 316° | 423 W/m² | - |
| 1778002997 | 12.78° C | 34% | 1013.3 hPa | 0 mm | 0.89 m/s, 249° | 349 W/m² | - |
| 1778002693 | 13.33° C | 32% | 1013.4 hPa | 0 mm | 1.79 m/s, 56° | 371 W/m² | - |
| 1778002389 | 12.78° C | 37% | 1013.1 hPa | 0 mm | 1.34 m/s, 312° | 394 W/m² | - |
| 1778002092 | 13.33° C | 34% | 1013 hPa | 0 mm | 1.34 m/s, 59° | 345 W/m² | - |
| 1778001784 | 13.33° C | 38% | 1013.1 hPa | 0 mm | 1.79 m/s, 12° | 401 W/m² | - |
| 1778001478 | 13.33° C | 38% | 1013 hPa | 0 mm | 1.79 m/s, 240° | 437 W/m² | - |
| 1778001175 | 13.33° C | 40% | 1013.1 hPa | 0 mm | 0.89 m/s, 282° | 424 W/m² | - |
| 1778000872 | 12.78° C | 39% | 1013 hPa | 0 mm | 0.45 m/s, 231° | 373 W/m² | - |
| 1778000569 | 12.78° C | 37% | 1013.1 hPa | 0 mm | 1.34 m/s, 252° | 302 W/m² | - |
| 1778000264 | 13.33° C | 37% | 1013 hPa | 0 mm | 2.68 m/s, 215° | 420 W/m² | - |
| 1777999960 | 12.78° C | 38% | 1012.9 hPa | 0 mm | 0.45 m/s, 271° | 256 W/m² | - |
| 1777999656 | 12.78° C | 35% | 1012.9 hPa | 0 mm | 0.45 m/s, 91° | 246 W/m² | - |
| 1777999353 | 12.78° C | 39% | 1012.7 hPa | 0 mm | 0.89 m/s, 131° | 291 W/m² | - |
| 1777999051 | 12.78° C | 38% | 1012.8 hPa | 0 mm | 0.45 m/s, 344° | 279 W/m² | - |
| 1777998750 | 12.78° C | 39% | 1013.3 hPa | 0 mm | 1.34 m/s, 16° | 215 W/m² | - |
| 1777998446 | 12.78° C | 39% | 1013.2 hPa | 0 mm | 1.34 m/s, 20° | 227 W/m² | - |
| 1777998143 | 12.22° C | 38% | 1013.1 hPa | 0 mm | 0.89 m/s, 269° | 219 W/m² | - |
| 1777997840 | 12.78° C | 37% | 1012.9 hPa | 0 mm | 0.89 m/s, 41° | 248 W/m² | - |
| 1777997538 | 12.22° C | 41% | 1013.1 hPa | 0 mm | 0.45 m/s, 356° | 228 W/m² | - |
| 1777997235 | 11.67° C | 38% | 1012.9 hPa | 0 mm | 1.34 m/s, 112° | 246 W/m² | - |
| 1777996933 | 12.22° C | 38% | 1012.8 hPa | 0 mm | 0.89 m/s, 62° | 295 W/m² | - |
| 1777996629 | 11.67° C | 39% | 1012.8 hPa | 0 mm | 0.89 m/s, 352° | 260 W/m² | - |
| 1777996325 | 12.22° C | 39% | 1012.9 hPa | 0 mm | 0.89 m/s, 105° | 246 W/m² | - |
* Rain latest hour (hover to see other rain measurements)
** Current wind speed in m/s (hover to see current wind gust speed)